Council Bluffs, IA

4:32 AM CST on January 24, 2018 (GMT -0600)
Council Bluffs Municipal

Weather History for KCBF - March, 2014

Change the Weather History Date:

Wednesday, March 5, 2014

  Actual Average Record
Temperature  
Mean Temperature 26 °F -  
Max Temperature 32 °F 36 °F 71 °F (2009)
Min Temperature 19 °F 21 °F 1 °F (2015)
Degree Days  
Heating Degree Days 40    
Moisture  
Dew Point 19 °F    
Average Humidity 78    
Maximum Humidity 86    
Minimum Humidity 60    
Precipitation  
Precipitation 0.00 in - - ()
Sea Level Pressure  
Sea Level Pressure 30.22 in    
Wind  
Wind Speed 11 mph (NE)    
Max Wind Speed 15 mph    
Max Gust Speed 18 mph    
Visibility 10 miles    
Events      
Averages and records for this station are not official NWS values.
T = Trace of Precipitation, MM = Missing Value Source: NWS Daily Summary

Daily Weather History Graph

Daily Weather History Graph

Search for Another Location

Airport or City:

Trip Planner

Search our weather history database for the weather conditions in past years. The results will help you decide how hot, cold, wet, or windy it might be!

Date:

Astronomy

Mar. 05, 2014 Rise Set
Actual Time 6:51 AM CST 6:18 PM CST
Civil Twilight 6:23 AM CST 6:46 PM CST
Nautical Twilight 5:51 AM CST 7:18 PM CST
Astronomical Twilight 5:19 AM CST 7:50 PM CST
Moon 9:14 AM CST (3/5) 11:31 PM CST (3/5)
Length of Visible Light 12h 22m
Length of Day
11h 27m
Waxing Crescent, 23% of the Moon is Illuminated
Mar 5
Waxing Crescent
Mar 8
First Quarter
Mar 16
Full
Mar 23
Last Quarter
Mar 30
New

Hourly Weather History & Observations

Time (CST) Temp. Windchill Dew Point Humidity Pressure Visibility Wind Dir Wind Speed Gust Speed Precip Events Conditions
12:15 AM 24.8 °F 13.4 °F 19.4 °F 80% 30.07 in 10.0 mi NNE 12.7 mph - N/A   Overcast
12:35 AM 23.0 °F 11.7 °F 19.4 °F 86% 30.07 in 10.0 mi NNE 11.5 mph - N/A   Overcast
12:55 AM 23.0 °F 11.7 °F 19.4 °F 86% 30.09 in 10.0 mi NNE 11.5 mph - N/A   Overcast
1:15 AM 23.0 °F 11.7 °F 19.4 °F 86% 30.09 in 10.0 mi NNE 11.5 mph - N/A   Overcast
1:35 AM 23.0 °F 12.4 °F 17.6 °F 80% 30.09 in 10.0 mi NNE 10.4 mph - N/A   Overcast
1:55 AM 21.2 °F 7.8 °F 17.6 °F 86% 30.10 in 10.0 mi North 15.0 mph - N/A   Overcast
2:15 AM 21.2 °F 7.8 °F 17.6 °F 86% 30.10 in 10.0 mi North 15.0 mph - N/A   Overcast
2:35 AM 21.2 °F 7.8 °F 15.8 °F 80% 30.12 in 10.0 mi North 15.0 mph - N/A   Overcast
2:55 AM 21.2 °F 9.5 °F 15.8 °F 80% 30.12 in 10.0 mi NNE 11.5 mph 18.4 mph N/A   Overcast
3:15 AM 19.4 °F 8.6 °F 15.8 °F 86% 30.12 in 10.0 mi NNE 9.2 mph - N/A   Overcast
3:35 AM 19.4 °F 8.6 °F 15.8 °F 86% 30.13 in 10.0 mi NNE 9.2 mph - N/A   Overcast
3:55 AM 19.4 °F 7.9 °F 15.8 °F 86% 30.13 in 10.0 mi NNE 10.4 mph - N/A   Overcast
4:15 AM 19.4 °F 7.2 °F 15.8 °F 86% 30.14 in 10.0 mi NNE 11.5 mph - N/A   Overcast
4:35 AM 19.4 °F 7.2 °F 15.8 °F 86% 30.14 in 10.0 mi NNE 11.5 mph - N/A   Overcast
4:55 AM 19.4 °F 6.0 °F 15.8 °F 86% 30.14 in 10.0 mi NNE 13.8 mph - N/A   Overcast
5:15 AM 19.4 °F 7.9 °F 15.8 °F 86% 30.14 in 10.0 mi North 10.4 mph - N/A   Overcast
5:35 AM 19.4 °F 6.6 °F 15.8 °F 86% 30.14 in 10.0 mi NNE 12.7 mph - N/A   Overcast
5:55 AM 19.4 °F 7.9 °F 15.8 °F 86% 30.16 in 10.0 mi North 10.4 mph - N/A   Overcast
6:15 AM 19.4 °F 6.6 °F 15.8 °F 86% 30.15 in 10.0 mi NNE 12.7 mph - N/A   Overcast
6:35 AM 19.4 °F 7.9 °F 15.8 °F 86% 30.16 in 10.0 mi NNE 10.4 mph - N/A   Overcast
6:55 AM 19.4 °F 11.5 °F 15.8 °F 86% 30.17 in 10.0 mi NNE 5.8 mph - N/A   Overcast
7:15 AM 21.2 °F 10.9 °F 15.8 °F 80% 30.18 in 9.0 mi NNE 9.2 mph - N/A   Mostly Cloudy
7:35 AM 21.2 °F 10.9 °F 15.8 °F 80% 30.18 in 10.0 mi NNE 9.2 mph - N/A   Mostly Cloudy
7:55 AM 21.2 °F 9.5 °F 15.8 °F 80% 30.20 in 9.0 mi NNE 11.5 mph - N/A   Overcast
8:15 AM 21.2 °F 10.1 °F 15.8 °F 80% 30.21 in 10.0 mi NNE 10.4 mph 16.1 mph N/A   Overcast
8:35 AM 21.2 °F 10.1 °F 15.8 °F 80% 30.22 in 10.0 mi NNE 10.4 mph 16.1 mph N/A   Overcast
8:50 AM 21.2 °F 10.1 °F 15.8 °F 80% 30.23 in 9.0 mi NNE 10.4 mph - N/A   Overcast
9:15 AM 23.0 °F 11.7 °F 15.8 °F 74% 30.24 in 10.0 mi NNE 11.5 mph - N/A   Overcast
9:35 AM 23.0 °F 12.4 °F 15.8 °F 74% 30.25 in 10.0 mi NNE 10.4 mph - N/A   Overcast
9:55 AM 23.0 °F 13.1 °F 17.6 °F 80% 30.26 in 10.0 mi NNE 9.2 mph - N/A   Overcast
10:15 AM 24.8 °F 14.6 °F 17.6 °F 74% 30.26 in 10.0 mi NE 10.4 mph - N/A   Overcast
10:35 AM 24.8 °F 14.0 °F 17.6 °F 74% 30.26 in 10.0 mi North 11.5 mph - N/A   Overcast
10:55 AM 24.8 °F 15.3 °F 17.6 °F 74% 30.27 in 10.0 mi NE 9.2 mph - N/A   Overcast
11:15 AM 24.8 °F 14.0 °F 17.6 °F 74% 30.27 in 10.0 mi NNE 11.5 mph - N/A   Overcast
11:35 AM 26.6 °F 16.8 °F 17.6 °F 69% 30.27 in 10.0 mi NNE 10.4 mph - N/A   Overcast
11:55 AM 26.6 °F 16.2 °F 17.6 °F 69% 30.27 in 10.0 mi NNE 11.5 mph - N/A   Overcast
12:15 PM 28.4 °F 18.0 °F 17.6 °F 64% 30.27 in 10.0 mi NE 12.7 mph - N/A   Overcast
12:30 PM 28.4 °F 18.5 °F 17.6 °F 64% 30.27 in 10.0 mi NNE 11.5 mph - N/A   Overcast
12:55 PM 28.4 °F 18.5 °F 19.4 °F 69% 30.26 in 10.0 mi NE 11.5 mph - N/A   Overcast
1:15 PM 30.2 °F 21.3 °F 19.4 °F 64% 30.25 in 10.0 mi East 10.4 mph - N/A   Overcast
1:35 PM 30.2 °F 20.8 °F 19.4 °F 64% 30.24 in 10.0 mi NNE 11.5 mph - N/A   Overcast
1:55 PM 30.2 °F 21.3 °F 19.4 °F 64% 30.24 in 10.0 mi NE 10.4 mph - N/A   Scattered Clouds
2:15 PM 30.2 °F 21.9 °F 19.4 °F 64% 30.24 in 10.0 mi NE 9.2 mph 16.1 mph N/A   Clear
2:35 PM 32.0 °F 23.6 °F 19.4 °F 60% 30.23 in 10.0 mi NE 10.4 mph 17.3 mph N/A   Clear
2:55 PM 32.0 °F 22.1 °F 19.4 °F 60% 30.23 in 10.0 mi ENE 13.8 mph - N/A   Clear
3:15 PM 32.0 °F 24.2 °F 21.2 °F 64% 30.24 in 10.0 mi East 9.2 mph - N/A   Clear
3:35 PM 32.0 °F 25.6 °F 21.2 °F 64% 30.24 in 10.0 mi NNE 6.9 mph 12.7 mph N/A   Clear
3:55 PM 32.0 °F 23.0 °F 21.2 °F 64% 30.25 in 10.0 mi NNE 11.5 mph - N/A   Scattered Clouds
4:15 PM 32.0 °F 24.8 °F 21.2 °F 64% 30.25 in 10.0 mi ENE 8.1 mph - N/A   Scattered Clouds
4:35 PM 32.0 °F 22.5 °F 21.2 °F 64% 30.24 in 10.0 mi NE 12.7 mph - N/A   Clear
4:55 PM 30.2 °F 21.3 °F 21.2 °F 69% 30.25 in 10.0 mi ENE 10.4 mph - N/A   Scattered Clouds
5:15 PM 30.2 °F 22.6 °F 21.2 °F 69% 30.25 in 10.0 mi ENE 8.1 mph - N/A   Scattered Clouds
5:35 PM 30.2 °F 21.3 °F 21.2 °F 69% 30.25 in 9.0 mi ENE 10.4 mph - N/A   Partly Cloudy
5:55 PM 28.4 °F 20.4 °F 21.2 °F 74% 30.26 in 9.0 mi East 8.1 mph - N/A   Mostly Cloudy
6:15 PM 28.4 °F 19.7 °F 21.2 °F 74% 30.27 in 9.0 mi East 9.2 mph - N/A   Overcast
6:35 PM 28.4 °F 18.5 °F 21.2 °F 74% 30.27 in 9.0 mi East 11.5 mph - N/A   Overcast
6:55 PM 26.6 °F 16.2 °F 21.2 °F 80% 30.27 in 10.0 mi East 11.5 mph - N/A   Overcast
7:15 PM 26.6 °F 16.8 °F 21.2 °F 80% 30.28 in 10.0 mi East 10.4 mph - N/A   Overcast
7:35 PM 26.6 °F 17.5 °F 21.2 °F 80% 30.28 in 10.0 mi East 9.2 mph - N/A   Overcast
7:55 PM 26.6 °F 16.2 °F 21.2 °F 80% 30.27 in 10.0 mi East 11.5 mph - N/A   Overcast
8:15 PM 24.8 °F 15.3 °F 21.2 °F 86% 30.27 in 10.0 mi East 9.2 mph - N/A   Overcast
8:35 PM 24.8 °F 14.6 °F 21.2 °F 86% 30.27 in 9.0 mi East 10.4 mph - N/A   Overcast
8:55 PM 24.8 °F 16.9 °F 21.2 °F 86% 30.28 in 9.0 mi ESE 6.9 mph - N/A   Overcast
9:15 PM 24.8 °F 13.4 °F 21.2 °F 86% 30.27 in 8.0 mi ESE 12.7 mph - N/A   Overcast
9:35 PM 24.8 °F 15.3 °F 21.2 °F 86% 30.29 in 8.0 mi ESE 9.2 mph - N/A   Overcast
9:55 PM 24.8 °F 14.6 °F 21.2 °F 86% 30.29 in 10.0 mi SE 10.4 mph - N/A   Overcast
10:15 PM 24.8 °F 15.3 °F 21.2 °F 86% 30.29 in 10.0 mi SE 9.2 mph - N/A   Overcast
10:35 PM 24.8 °F 14.6 °F 21.2 °F 86% 30.29 in 9.0 mi ESE 10.4 mph - N/A   Overcast
10:55 PM 24.8 °F 13.4 °F 21.2 °F 86% 30.27 in 10.0 mi SE 12.7 mph - N/A   Overcast
11:15 PM 24.8 °F 13.4 °F 21.2 °F 86% 30.26 in 10.0 mi SE 12.7 mph - N/A   Overcast
11:35 PM 24.8 °F 17.9 °F 21.2 °F 86% 30.27 in 10.0 mi SSE 5.8 mph 12.7 mph N/A   Overcast
11:55 PM 24.8 °F 19.1 °F 21.2 °F 86% 30.28 in 10.0 mi SSE 4.6 mph - N/A   Overcast